Home > Weather > Beira > Past weeks

Flag for Mozambique Past Weather in Beira, Mozambique — Yesterday and Last 2 Weeks

Now
75 °F

Sunny.


Feels Like: 75 °F
Forecast: 67 / 83 °F
Wind: N/A

Location: Beira Airport

Current Time: Jul 28, 2016 at 4:43:01 PM

Latest Report: Jul 28, 2016 at 4:00 PM


Visibility: 10 mi

Pressure: 29.89 "Hg

Humidity: 83%

Dew Point: 70 °F

Location of BeiraLocation

Past Weather in Beira — Graph

°F

Beira Temperature Yesterday

Maximum temperature yesterday: 82 °F (at 11:00 AM)
Minimum temperature yesterday: 64 °F (at 2:00 AM)
Average temperature yesterday: 76 °F

High & Low Weather Summary for the Past Weeks

 TemperatureHumidityPressure
High82 °F (Jul 27, 11:00 AM)100% (Jul 14, 5:00 AM)30.24 "Hg (Jul 14, 5:00 AM)
Low61 °F (Jul 21, 6:00 AM)54% (Jul 22, 12:00 PM)29.86 "Hg (Jul 27, 2:00 PM)
Average71 °F84%30.08 "Hg
* Reported Jul 13 3:00 PM — Jul 28 3:00 PM, Beira, Weather by CustomWeather, © 2016

Note: Actual official high and low records may vary slightly from our data, if they occured in-between our weather recording intervals... More about our weather records

Advertising

Beira Weather History for the Previous 24 Hours

Scroll right to see more
 ConditionsComfort  
Time TempWeatherWind HumidityBarometerVisibility
3:00 PM
Thu, Jul 28
77 °FSunny.N/A79%29.86 "Hg10 mi
2:00 PM77 °FSunny.N/A79%29.89 "Hg10 mi
1:00 PM79 °FSunny.N/A74%29.92 "Hg10 mi
12:00 PM79 °FSunny.N/A74%29.92 "Hg10 mi
11:00 AM79 °FPassing clouds.N/A70%29.95 "HgN/A
10:00 AM77 °FPassing clouds.N/A74%29.98 "HgN/A
9:00 AM73 °FPassing clouds.N/A83%29.98 "HgN/A
8:00 AM72 °FClear.N/A88%29.95 "HgN/A
7:00 AM72 °FScattered clouds.N/A88%29.95 "HgN/A
6:00 AM70 °FPassing clouds.N/A100%29.95 "HgN/A
5:00 AM70 °FPassing clouds.N/A94%29.92 "HgN/A
10:00 PM
Wed, Jul 27
73 °FClear.N/A83%29.92 "Hg10 mi
9:00 PM73 °FClear.N/A89%29.92 "Hg10 mi
8:00 PM73 °FClear.N/A89%29.92 "Hg10 mi
7:00 PM75 °FClear.N/A89%29.89 "Hg10 mi
6:00 PM75 °FClear.N/A78%29.89 "Hg10 mi
5:00 PM77 °FSunny.N/A74%29.89 "Hg10 mi
4:00 PM79 °FSunny.N/A70%29.89 "Hg10 mi
Weather by CustomWeather, © 2016

See weather overviewHow to use our weather pages